Location: Bremen
(53.0793°N, 8.8017°E)
Time: 08:47:22
(UTC+01:00)

Transit 2A - Pass Details

Date: 08 December 2021
Orbit: 591 x 966 km, 66.7° (Epoch: 26 January)

Event Time Altitude Azimuth Distance (km) Brightness Sun altitude
Exits shadow 06:05:56 18° 332° (NNW) 2,179 8.0 -19.6°
Maximum altitude 06:10:12 39° 31° (NNE) 1,422 7.5 -18.9°
Drops below altitude 10° 06:16:04 10° 99° (E) 2,672 10.1 -18.1°
Sets 06:18:46 0° 107° (ESE) 3,583 11.2 -17.7°
